Location: Dziekanowice
(50.3533°N, 20.3878°E)
Time: 23:46:10
(UTC+01:00)

ISS - Visible Passes

Search period start: 23 January 2019 00:00
Search period end: 02 February 2019 00:00
Orbit: 404 x 410 km, 51.6° (Epoch: 24 January)

Date Brightness Start Highest point End Pass type
(mag) Time Alt. Az. Time Alt. Az. Time Alt. Az.
23 Jan -1.6 18:39:48 10° SSW 18:41:05 19° SSW 18:41:05 19° SSW visible
24 Jan -2.1 17:49:04 10° SSW 17:51:34 20° SE 17:52:04 19° SE visible
24 Jan -0.6 19:24:26 10° WSW 19:24:47 13° WSW 19:24:47 13° WSW visible
25 Jan -1.5 16:58:51 10° SSE 17:00:25 13° SE 17:02:01 10° ESE visible
25 Jan -2.9 18:33:10 10° SW 18:35:41 42° SSW 18:35:41 42° SSW visible
26 Jan -2.9 17:42:02 10° SW 17:45:06 36° SSE 17:46:30 24° E visible
26 Jan -1.0 19:18:12 10° W 19:19:14 19° W 19:19:14 19° W visible
27 Jan -3.9 18:26:48 10° WSW 18:30:00 82° SW 18:30:00 82° SW visible
28 Jan -3.6 17:35:26 10° WSW 17:38:43 63° SSE 17:40:43 21° E visible
28 Jan -1.4 19:11:59 10° W 19:13:26 23° W 19:13:26 23° W visible
29 Jan -3.9 18:20:31 10° W 18:23:50 74° N 18:24:07 67° NE visible
30 Jan -3.8 17:29:03 10° WSW 17:32:22 87° NNW 17:34:47 17° ENE visible
30 Jan -1.8 19:05:43 10° W 19:07:30 29° WNW 19:07:30 29° WNW visible
31 Jan -3.8 18:14:14 10° W 18:17:32 68° N 18:18:09 52° ENE visible
31 Jan -0.1 19:50:50 10° WNW 19:50:51 10° WNW 19:50:51 10° WNW visible
01 Feb -3.7 17:22:44 10° W 17:26:02 70° N 17:28:49 14° ENE visible
01 Feb -2.3 18:59:22 10° WNW 19:01:32 38° WNW 19:01:32 38° WNW visible
